"Pseudo-MPEC" for P116gvW

Created 2020 Sep 26 0:07:22 UT using Find_Orb

Click here for an explanation of pseudo-MPECs

 
 Astrometry: 
     P116gvW  C2020 09 10.23722 22 30 26.84 +14 44 08.8    ~9PNb       VNEOCPG96
     P116gvW  C2020 09 10.24144 22 30 26.82 +14 44 06.8    ~9PNb 22.7 GVNEOCPG96
     P116gvW  C2020 09 10.24986 22 30 27.02 +14 44 00.8    ~9PNb 22.7 GVNEOCPG96
     P116gvW  C2020 09 164;YAstrometry^AV*oTfs,\=KaF-:TM6w([#`U@0C[i'yfK.RD:iF51
     P116gvW  C2020 09 16;ePbMD'rRX3[:BUJf6mGmG3U@co/X5_@b)6iUhG/V\JR8N(vfuCSF51
     P116gvW  C2020 09 16:RsW!(56A0x%FAZiBjyY:QKBJSj);CCG=TIEC_redacted;g-^l.F51
     P116gvW  C2020 09 20.27959 22 35 04.20 +12 34 46.2    ~9PNb 21.8 GVNEOCPG96
     P116gvW  C2020 09 20.28527 22 35 04.36 +12 34 40.5    ~9PNb 21.8 GVNEOCPG96
     P116gvW  C2020 09 25YwpP[d[,-+9%uBuseB6sk5=QVJi2H)c$y9_duEKZ_PV'K)GclickF51
     P116gvW  C2020 09 25Hst9.7j?3u(6$l:X+TvZy!;8QKtWTu%Mo5ac.WP*_f.Q'@]5pq4qF51
     P116gvW  C2020 09 252'#]!Zkv9k1.,Nc%FIE/L)7;cPqu1N32.$b!w-3+:;!W@Hf1[l:LF51
     P116gvW  C2020 09 25.:58feI:x5#QXS8khere^,-`d'bjGs%:g,\An`q^,s;7RnOwS\^mF51
     P116gvW  C2020 09 25f/Dg\J[I0]+QQ-l$PbQky]`)[m??:?_#cM_3b.CFnOQUuT3KeqpHF51
     P116gvW  C2020 09 251y]XrWr7uC4h,ve,jn7iE3;Rf2Uforwe8U]o'tfVNcjIf\/1PG1@F51
     P116gvW  C2020 09 25Fx5bQ!t,R9xexplanation-vH4JhDyQ4oUQd1(1vXuktLFo2xbd+F51

Station data:
(F51) Pan-STARRS 1, Haleakala  (N20.707235 W156.255910)  US/Hawaii.
   Observers N. Primak, A. Schultz, S. Watters, J. Thiel, T. Goggia. Measurer
   PS1 Science Consortium. 1.8-m Ritchey-Chrétien + CCD.
(G96) Mt. Lemmon Survey  (N32.442754 W110.788720)  US/Arizona.  Observers T.
   A. Pruyne, B. M. Africano, E. J. Christensen, G. A. Farneth, D. C. Fuls,
   A. R. Gibbs, A. D. Grauer, H. Gröller, J. A. Johnson, R. A. Kowalski, S.
   M. Larson, G. J. Leonard, D. Rankin, R. L. Seaman, F. C. Shelly. 1.5-m
   reflector + 10K CCD.

Orbital elements:  P116gvW
   Perihelion 2020 Sep 19.013421 +/- 0.0953 TT =  0:19:19 (JD 2459111.513421)
Epoch 2020 Sep 25.0 TT = JDT 2459117.5   Earth MOID: 0.3864   Ma: 0.0480
M   1.81807677 +/- 0.034            (J2000 ecliptic)          AutoNEOCP
n   0.30369210 +/- 0.000861         Peri.  132.08019 +/- 0.11
a   2.19203280 +/- 0.00414          Node   220.99114 +/- 0.047
e   0.3730479 +/- 0.000876          Incl.    7.64957 +/- 0.015
P   3.25                   H 22.9   G  0.15   U  8.0  
q 1.37429937 +/- 0.000676    Q 3.00976623 +/- 0.00757
From 15 observations 2020 Sept. 10-25; mean residual 0".31
Residuals in arcseconds: 
200910 G96  .21+  .18-    200916 F51  .43+  .79-    200925 F51  .02-  .26-    
200910 G96  .84-  .45+    200920 G96  .10-  .30+    200925 F51  .05+  .01-    
200910 G96  .57+  .28-    200920 G96  .11-  .32-    200925 F51  .00   .10+    
200916 F51  .13-  .38+    200925 F51  .05-  .04-    200925 F51  .04-  .05+    
200916 F51  .06-  .44+    200925 F51  .06+  .01-    200925 F51  .09+  .19+    

Ephemerides (geocentric):
Date (UTC) HH   RA              Dec         delta   r     elong  mag " sig PA
---- -- -- --  -------------   -----------  ------ ------ -----  --- ---- ---
2020 09 26 00  22 39 03.886   +11 06 18.55  .40005 1.3757 155.1 22.5 .186  60
2020 09 26 01  22 39 05.873   +11 05 38.59  .40012 1.3757 155.0 22.5 .190  59
2020 09 26 02  22 39 07.863   +11 04 58.63  .40018 1.3758 155.0 22.5 .195  59
2020 09 26 03  22 39 09.857   +11 04 18.65  .40025 1.3758 155.0 22.5 .199  59
2020 09 26 04  22 39 11.854   +11 03 38.66  .40032 1.3758 155.0 22.5 .204  58
2020 09 26 05  22 39 13.855   +11 02 58.66  .40038 1.3758 155.0 22.5 .209  58
2020 09 26 06  22 39 15.859   +11 02 18.65  .40045 1.3758 155.0 22.5 .213  57
2020 09 26 07  22 39 17.867   +11 01 38.63  .40052 1.3758 154.9 22.5 .218  57
2020 09 26 08  22 39 19.878   +11 00 58.59  .40059 1.3759 154.9 22.5 .223  57
2020 09 26 09  22 39 21.893   +11 00 18.55  .40066 1.3759 154.9 22.5 .228  56
2020 09 26 10  22 39 23.911   +10 59 38.49  .40072 1.3759 154.9 22.5 .233  56
2020 09 26 11  22 39 25.933   +10 58 58.42  .40079 1.3759 154.9 22.5 .237  56
2020 09 26 12  22 39 27.959   +10 58 18.35  .40086 1.3759 154.9 22.5 .242  55
2020 09 26 13  22 39 29.988   +10 57 38.26  .40093 1.3760 154.8 22.5 .247  55
2020 09 26 14  22 39 32.021   +10 56 58.16  .40100 1.3760 154.8 22.5 .252  55
2020 09 26 15  22 39 34.057   +10 56 18.05  .40107 1.3760 154.8 22.5 .257  55
2020 09 26 16  22 39 36.097   +10 55 37.93  .40114 1.3760 154.8 22.5 .262  54
2020 09 26 17  22 39 38.140   +10 54 57.80  .40121 1.3760 154.8 22.5 .267  54
2020 09 26 18  22 39 40.187   +10 54 17.66  .40128 1.3760 154.8 22.5 .273  54
2020 09 26 19  22 39 42.237   +10 53 37.51  .40135 1.3761 154.8 22.5 .278  54
2020 09 26 20  22 39 44.292   +10 52 57.36  .40142 1.3761 154.7 22.5 .283  53
2020 09 26 21  22 39 46.349   +10 52 17.19  .40149 1.3761 154.7 22.5 .288  53
2020 09 26 22  22 39 48.410   +10 51 37.01  .40156 1.3761 154.7 22.5 .293  53
2020 09 26 23  22 39 50.475   +10 50 56.82  .40163 1.3761 154.7 22.5 .299  53
2020 09 27 00  22 39 52.543   +10 50 16.63  .40170 1.3762 154.7 22.5 .304  52
2020 09 27 01  22 39 54.615   +10 49 36.42  .40178 1.3762 154.6 22.5 .309  52
2020 09 27 02  22 39 56.690   +10 48 56.21  .40185 1.3762 154.6 22.5 .315  52
2020 09 27 03  22 39 58.769   +10 48 15.99  .40192 1.3762 154.6 22.5 .320  52
2020 09 27 04  22 40 00.851   +10 47 35.75  .40199 1.3762 154.6 22.5 .326  51
2020 09 27 05  22 40 02.937   +10 46 55.51  .40206 1.3763 154.6 22.5 .331  51
2020 09 27 06  22 40 05.027   +10 46 15.27  .40214 1.3763 154.6 22.5 .337  51
2020 09 27 07  22 40 07.120   +10 45 35.01  .40221 1.3763 154.5 22.5 .342  51
2020 09 27 08  22 40 09.217   +10 44 54.74  .40228 1.3763 154.5 22.5 .348  51
2020 09 27 09  22 40 11.317   +10 44 14.47  .40236 1.3763 154.5 22.5 .354  50
2020 09 27 10  22 40 13.421   +10 43 34.19  .40243 1.3764 154.5 22.5 .359  50
2020 09 27 11  22 40 15.528   +10 42 53.90  .40251 1.3764 154.5 22.5 .365  50
2020 09 27 12  22 40 17.639   +10 42 13.61  .40258 1.3764 154.5 22.5 .371  50
2020 09 27 13  22 40 19.753   +10 41 33.30  .40265 1.3764 154.4 22.5 .377  50
2020 09 27 14  22 40 21.871   +10 40 52.99  .40273 1.3764 154.4 22.5 .382  49
2020 09 27 15  22 40 23.993   +10 40 12.67  .40280 1.3765 154.4 22.5 .388  49
2020 09 27 16  22 40 26.118   +10 39 32.34  .40288 1.3765 154.4 22.5 .394  49
2020 09 27 17  22 40 28.246   +10 38 52.01  .40295 1.3765 154.4 22.5 .400  49
2020 09 27 18  22 40 30.379   +10 38 11.67  .40303 1.3765 154.4 22.5 .406  49
2020 09 27 19  22 40 32.514   +10 37 31.32  .40311 1.3765 154.3 22.6 .412  48
2020 09 27 20  22 40 34.654   +10 36 50.97  .40318 1.3766 154.3 22.6 .418  48
2020 09 27 21  22 40 36.796   +10 36 10.61  .40326 1.3766 154.3 22.6 .424  48
2020 09 27 22  22 40 38.943   +10 35 30.24  .40333 1.3766 154.3 22.6 .430  48
2020 09 27 23  22 40 41.093   +10 34 49.87  .40341 1.3766 154.3 22.6 .436  48